Regional Weather Roundup
Issued by NWS Cleveland, OH

Home | Current Version | Previous Version | Graphics & Text | Print | Product List | Glossary On
Versions: 1 2 3 4 5 6 7 8 9 10 11 12 13 14 15 16 17 18 19 20 21 22 23 24 25 26 27 28 29 30 31 32 33 34 35 36 37 38 39 40 41 42 43 44 45 46 47 48 49 50
000
ASUS41 KCLE 190700
RWRCLE
OHIO REGIONAL WEATHER ROUNDUP
NATIONAL WEATHER SERVICE WILMINGTON, OH
300 AM EDT SUN APR 19 2015

NOTE: "FAIR" INDICATES FEW OR NO CLOUDS BELOW 12,000 FEET WITH NO
SIGNIFICANT WEATHER AND/OR OBSTRUCTIONS TO VISIBILITY.

OHZ001>008-015>018-024>027-034-035-043-044-190800-
   NORTHWEST OHIO

CITY           SKY/WX    TMP DP  RH WIND       PRES   REMARKS
DEFIANCE       CLOUDY    49  36  61 NE8       30.03F
FINDLAY        MOCLDY    50  37  61 NE14      30.01F
TOLEDO EXPRESS MOCLDY    49  33  54 E13       30.05F
TOLEDO EXEC    MOCLDY    48  34  58 NE10G17   30.07F
LIMA           CLOUDY    53  38  56 E13       29.99F
$$

OHZ009>014-019>023-028>033-038-089-190800-
   NORTHEAST OHIO

CITY           SKY/WX    TMP DP  RH WIND       PRES   REMARKS
CLE-HOPKINS    MOCLDY    49  32  52 NE8       30.08F
CLE-LAKEFRONT  MOCLDY    49  40  71 NE9       30.06F
CUY CO. ARPT   NOT AVBL
LORAIN-ELYRIA  MOCLDY    47  35  63 E7        30.06F
ASHTABULA      MOCLDY    47  24  40 NE7       30.11F
AKRON-CANTON   CLOUDY    53  30  41 E13       30.04F
WOOSTER        NOT AVBL
MANSFIELD      CLOUDY    53  33  46 E7        30.03F
YOUNGSTOWN     MOCLDY    50  26  39 NE12      30.06F
$$

OHZ042-051>053-060>062-070>072-077>081-190800-
  SOUTHWEST OHIO

CITY           SKY/WX    TMP DP  RH WIND       PRES   REMARKS
CINC-COVINGTON CLOUDY    65  44  46 E12       29.91F
CINC-LUNKEN    CLOUDY    63  47  55 NE6       29.92F
HAMILTON       CLOUDY    61  49  64 E7        29.94F
DAYTON         NOT AVBL
WRIGHT-PAT AFB MOCLDY    58  42  55 NE6       29.95F
DAYTON GENERAL MOCLDY    60  46  59 E12       29.94F
WILMINGTON     MOCLDY    57  47  69 E7        29.95F
$$

OHZ036-037-039>041-045>050-054>059-063>069-073>076-082>088-190800-
  CENTRAL AND SOUTHEAST OHIO

CITY           SKY/WX    TMP DP  RH WIND       PRES   REMARKS
COLUMBUS       MOCLDY    59  40  49 E9        29.98F
OSU AIRPORT    MOCLDY    57  39  51 E8        29.99F
BOLTON FIELD   NOT AVBL
RICKENBACK AFB NOT AVBL
NEWARK         CLOUDY    59  40  49 E3        30.00F
MARION         CLOUDY    51  38  60 NE5       30.01F
LANCASTER      MOCLDY    58  45  62 E5        29.99S
ZANESVILLE     CLOUDY    58  40  51 NE5       30.00F
NEW PHILLY     CLOUDY    60  37  42 E5        30.04F
$$



USA.gov is the U.S. government's official web portal to all federal, state and local government web resources and services.